User: anonymous   Login
Location: Mason Neck State Park
(38.6428°N, 77.1981°W)
Time: 15:08:33
(UTC-04:00)
Language:

Cosmos 1400 Rocket - Orbit

View from above orbital plane
View from above orbital plane
View from above satellite
View from above satellite

Ground track
Ground track

The orbit data is extracted from the following two-line orbital elements,

1 13403U 82079B   17141.88842202 -.00000118 +00000-0 -94442-5 0  9995
2 13403 081.1677 299.4602 0033957 007.4708 352.7014 15.06567552892764
Epoch (UTC): 21 May 2017 21:19:19
Eccentricity: 0.0033957
inclination: 81.1677°
perigee height: 523 km
apogee height: 570 km
right ascension of ascending node: 299.4602°
argument of perigee: 7.4708°
revolutions per day: 15.06567552
mean anomaly at epoch: 352.7014°
orbit number at epoch: 89276

The dashed part of the orbit path shows where the satellite is in the earth's shadow,  

DLR